Hourly Data Report for September 13, 2017

All times are specified in Local Standard Time (LST). Add 1 hour to adjust for Daylight Saving Time where and when it is observed.

NAPPAN AUTO
NOVA SCOTIA

45°45'34.400" N
64°14'29.200" W
19.80 m
8203702
71311
XNP

Download Data

Hourly Data (September 2017)
Hourly Data Report for September 13, 2017
Temp Definition
°C
Dew Point Temp Definition
°C
Rel Hum Definition
%
Wind Dir Definition
10's deg

Wind Spd Definition
km/h
Visibility Definition
km
Stn Press Definition
kPa
Hmdx Definition


Wind Chill Definition


Weather Definition


TIME
00:00 12.6 10.9 89 15 5   100.31     LegendNANA
01:00 10.3 9.5 95 18 3   100.31     LegendNANA
02:00 10.2 9.6 96 17 4   100.34     LegendNANA
03:00 9.2 8.8 97 14 3   100.36     LegendNANA
04:00 8.6 8.2 97 16 3   100.35     LegendNANA
05:00 7.8 7.4 98 19 9   100.38     LegendNANA
06:00 7.4 7.1 98 17 5   100.43     LegendNANA
07:00 8.8 8.5 98 19 6   100.51     LegendNANA
08:00 13.7 12.3 92 18 5   100.53     LegendNANA
09:00 18.0 13.2 74 29 5   100.55     LegendNANA
10:00 19.8 12.9 65 24 9   100.54     LegendNANA
11:00 21.1 13.7 63 27 13   100.50     LegendNANA
12:00 23.2 14.5 58 27 13   100.48 27   LegendNANA
13:00 24.0 14.3 55 24 16   100.47 28   LegendNANA
14:00 23.9 14.4 55 25 20   100.45 28   LegendNANA
15:00 24.0 14.4 55 24 18   100.43 28   LegendNANA
16:00 23.4 14.4 57 24 19   100.43 27   LegendNANA
17:00 21.7 13.6 60 23 24   100.44 25   LegendNANA
18:00 19.9 12.5 62 22 22   100.47     LegendNANA
19:00 18.7 12.6 68 21 22   100.52     LegendNANA
20:00 17.2 12.2 72 19 12   100.56     LegendNANA
21:00 15.3 11.8 80 18 9   100.58     LegendNANA
22:00 17.5 12.2 71 19 19   100.57     LegendNANA
23:00 15.4 12.2 81 18 12   100.55     LegendNANA

Notes on Data Quality.

Legend

  • E = Estimated
  • M = Missing
  • NA = Not Available
  • ‡ = Partner data that is not subject to review by the National Climate Archives
Date modified: